Location: UBC Liquid-Mirror Observatory
(49.2876°N, 122.5728°W)
Time: 10:58:25
(UTC-07:00)

Daily predictions for brighter satellites

Satellite Brightness Start Highest point End
(mag) Time Altitude Azimuth Time Altitude Azimuth Time Altitude Azimuth
USA 229 DEB 4.4 20:47:07 10° S 20:52:49 29° ESE 20:58:37 10° ENE
USA 229 4.4 20:47:16 10° S 20:52:56 29° ESE 20:58:43 10° ENE
Cosmos 1862 3.3 20:49:49 10° N 20:53:52 86° ENE 20:57:55 10° S
Cosmos 1992 Rocket 4.1 20:49:07 10° S 20:54:16 61° ESE 20:59:27 10° NNE
Meteor 2-10 Rocket 4.3 20:52:32 10° SSE 20:57:55 41° E 21:03:15 10° NNE
Helios 1A 3.1 20:55:18 10° SSE 20:59:33 90° W 21:03:50 10° NNW
Cosmos 2026 Rocket 4.3 20:54:01 10° NNW 21:00:15 74° W 21:06:22 10° S
Okean 2 Rocket 4.4 21:00:32 10° NNE 21:04:20 25° ENE 21:08:05 10° SE
Cosmos 2219 Rocket 3.9 21:02:53 10° ESE 21:04:44 12° E 21:06:35 10° ENE
Cosmos 1862 Rocket 3.6 21:01:19 10° S 21:05:45 69° E 21:10:14 10° NNE
USA 186 3.2 21:09:02 10° SSW 21:11:44 35° W 21:14:36 10° NNW
USA 267 3.3 21:08:37 10° ENE 21:15:13 81° SE 21:21:47 10° SW
SAR-Lupe-4 4.2 21:14:03 10° S 21:17:35 57° W 21:21:09 10° NNW
Cosmos 2263 Rocket 3.2 21:15:36 10° NW 21:20:53 45° WSW 21:26:09 10° S
Cosmos 1939 Rocket 3.0 21:16:52 10° S 21:20:53 80° WSW 21:24:53 10° NNW
Cosmos 968 Rocket 3.6 21:17:57 10° NNW 21:23:10 78° WSW 21:28:23 10° SSE
Abrixas rocket 2.1 21:21:28 10° W 21:24:46 78° S 21:27:47 12° E
Cosmos 1825 4.2 21:21:50 10° NNW 21:25:09 28° W 21:28:26 10° SSW
ATLAS 3B R/B 4.5 21:20:14 10° NW 21:26:02 26° N 21:31:35 10° ENE
Cosmos 1703 Rocket 3.9 21:22:18 10° SSE 21:26:31 45° E 21:30:44 10° NNE
Terra 3.8 21:24:24 10° E 21:27:10 16° NE 21:29:57 10° NNE
Meteor 1-29 2.9 21:24:55 10° NNE 21:28:25 87° ESE 21:31:53 10° SSW
CZ-4B DEB 3.8 21:28:42 10° S 21:31:37 42° W 21:34:32 10° NNW
Lacrosse 4 Rocket 4.3 21:34:58 10° W 21:36:46 12° WSW 21:38:34 10° SW
Helios 1B rocket 2.8 21:33:07 10° N 21:37:12 67° WNW 21:41:16 10° SSW
Cosmos 2322 Rocket 3.1 21:31:44 10° SW 21:37:14 53° NW 21:42:47 10° NNE
Cosmos 2237 4.5 21:32:31 10° S 21:37:56 46° ESE 21:43:24 10° NE
Atlas Centaur 2 4.3 21:37:27 10° SSW 21:41:33 16° S 21:44:38 13° SSE
Cosmos 2360 Rocket 2.1 21:39:01 10° SSW 21:44:40 81° ESE 21:50:23 10° NNE
Envisat 4.0 21:40:20 10° S 21:45:10 45° W 21:50:04 10° NNW
MetOp-B 4.2 21:40:38 13° SSE 21:45:26 69° ENE 21:50:47 10° N
COSMOS 2428 3.1 21:42:05 10° S 21:47:23 42° ESE 21:52:44 10° NE
Cosmos 2266 Rocket 4.1 21:43:03 10° N 21:49:21 86° W 21:55:45 10° S
Cosmos 2221 Rocket 3.6 21:47:11 10° S 21:51:31 61° E 21:55:56 10° NNE
YAOGAN 11 4.1 21:48:42 16° SSE 21:52:08 73° ENE 21:56:27 10° N
USA 234 3.6 21:46:49 15° SE 21:52:18 57° SW 21:58:45 10° WNW
ATLAS 5 CENTAUR R/B 3.6 21:47:08 10° NW 21:52:31 36° WSW 21:58:19 10° S
H-2A R/B 2.6 21:49:47 18° SE 21:53:00 40° ENE 21:57:34 10° N
Cosmos 1606 3.7 21:52:07 22° SE 21:53:29 27° E 21:56:45 10° NNE
Cosmos 1844 3.8 21:48:42 10° NNW 21:54:24 68° ENE 21:58:22 20° SE
NOAA 11 4.2 21:52:39 13° SSE 21:57:32 87° E 22:03:04 10° NNW
Meteor 1-25 Rocket 4.2 21:54:56 10° NNW 22:00:34 88° W 22:05:20 14° S
Cosmos 2322 3.7 21:57:02 10° SSW 22:02:45 87° WNW 22:08:30 10° NNE
ARGOS 3.1 22:00:30 18° SSE 22:04:34 78° ENE 22:09:59 10° NNW
MOS 1-B Rocket 3.8 22:00:06 17° SSE 22:04:36 75° ENE 22:10:13 10° NNW
ERS-1 Rocket 3.5 22:02:04 10° S 22:07:00 57° W 22:11:58 10° NNW
SeaSat 1 2.5 22:04:32 22° SE 22:07:42 73° ENE 22:12:38 10° NNW
Cosmos 1536 4.5 22:04:52 10° NNE 22:07:55 20° ENE 22:09:05 18° E
SL-16 R/B 3.9 22:03:06 10° WSW 22:08:18 36° NW 22:13:31 10° NNE
Meteor 1-20 Rocket 4.2 22:04:18 10° NNW 22:09:53 84° W 22:14:27 16° S
H-2A R/B 3.0 22:08:08 23° ESE 22:10:02 34° ENE 22:14:01 10° N
YAOGAN 6 4.1 22:07:18 10° SSW 22:10:38 34° W 22:13:57 10° NNW
Cosmos 1244 Rocket 4.5 22:10:21 10° N 22:16:38 76° E 22:21:03 21° SSE
SL-08 RB Rocket 3.6 22:17:32 25° SSE 22:20:14 86° ENE 22:24:48 10° NNW
SPOT 5 2.9 22:18:27 21° S 22:21:41 73° WSW 22:26:14 10° NNW
Cosmos 1844 Rocket 3.0 22:16:58 10° NW 22:22:29 63° WSW 22:26:06 22° S
Cosmos 2237 Rocket 3.1 22:22:05 26° SE 22:23:30 29° ESE 22:28:20 10° NE
Cosmos 2278 Rocket 2.3 22:18:40 10° NNW 22:24:19 65° ENE 22:27:20 28° SE
Cosmos 2333 4.2 22:19:16 10° SSW 22:24:57 71° ESE 22:30:44 10° NNE
USA 129 4.4 22:24:51 10° NNE 22:25:13 14° NNE 22:25:13 14° NNE
Cosmos 2333 Rocket 2.6 22:23:51 24° SSE 22:26:49 41° ESE 22:32:12 10° NE
Cosmos 1300 Rocket 4.1 22:24:06 10° N 22:28:16 43° ENE 22:29:37 33° ESE
Iridium 4 Rocket 3.8 22:25:02 10° NNE 22:28:50 33° E 22:29:42 30° ESE
Cosmos 1553 Rocket 4.3 22:26:20 25° SSE 22:29:43 49° E 22:35:39 10° NNE
Meteor 2-6 Rocket 4.3 22:25:54 19° S 22:30:13 67° E 22:36:08 10° NNE
Cosmos 1898 Rocket 3.8 22:29:22 10° NNW 22:34:28 53° ENE 22:36:41 31° ESE
ASTEX 1 3.6 22:34:28 33° SE 22:36:32 57° E 22:41:25 10° N
NOSS 3-1 (C) 3.5 22:31:03 10° SSW 22:36:42 54° ESE 22:43:06 10° NE
CZ-4C R/B 2.8 22:30:45 10° NW 22:37:42 87° NE 22:42:13 28° SE
Okean 1-7 3.9 22:34:57 10° SSW 22:39:15 50° WNW 22:43:34 10° N
USA 245 4.5 22:36:23 19° S 22:40:09 54° WSW 22:44:39 10° NNW
SPOT 1/Viking Rocket 3.7 22:37:50 26° S 22:40:51 72° WSW 22:46:06 10° NNW
Okean 2 Rocket 4.3 22:38:19 10° NNW 22:42:33 39° W 22:45:41 16° SSW
USA 229 DEB 3.9 22:36:22 10° SW 22:43:13 76° NW 22:50:16 10° NE
USA 229 3.9 22:36:28 10° SW 22:43:19 76° NW 22:50:22 10° NE
Cosmos 1782 3.1 22:41:34 23° SSW 22:44:00 66° WNW 22:48:00 10° N
Cosmos 1633 2.6 22:43:17 10° NNW 22:46:58 73° W 22:47:52 48° SSW
Cosmos 2219 Rocket 2.1 22:43:11 16° SSW 22:47:38 71° ESE 22:53:15 10° NNE
TRAILBLAZER 4.5 22:44:26 17° SSW 22:47:50 67° SE 22:52:24 10° NE
Landsat 7 3.8 22:47:12 37° SSE 22:49:09 86° WSW 22:53:56 10° NNW
Cosmos 2084 3.6 22:45:58 10° NW 22:49:42 50° SW 22:50:26 43° SSW
Cosmos 1602 3.7 22:48:43 10° NNW 22:52:35 81° W 22:53:25 53° S
NOSS 3-1 (A) 3.5 22:49:49 22° S 22:53:29 53° ESE 22:59:51 10° NE
ATLAS 2AS CENTAUR R/B 4.2 22:55:31 20° ESE 22:55:36 20° ESE 23:01:04 10° ENE
Cosmos 1378 Rocket 4.2 22:56:21 37° E 22:56:33 37° E 23:00:39 10° NNE
USA 267 4.0 22:51:43 10° ENE 22:58:02 53° NNW 23:04:23 10° W
Cosmos 1346 Rocket 2.6 22:57:34 58° S 22:58:17 79° E 23:02:18 10° NNE
PSLV R/B 3.7 23:00:15 49° N 23:00:15 49° N 23:02:27 10° N
S3M 3.9 22:57:45 30° S 23:00:56 77° E 23:07:12 10° NNE
Abrixas rocket 3.4 22:58:16 10° W 23:00:27 32° WSW 23:00:27 32° WSW
Cosmos 1709 Rocket 4.5 22:57:46 10° N 23:03:58 49° ENE 23:06:16 34° SE
Terra 1.7 23:02:47 45° SSE 23:04:15 87° WSW 23:09:04 10° NNW
deb Chang Zheng 4 3.5 23:04:02 10° NNE 23:08:26 67° ESE 23:09:05 58° SSE
Meteor 2-11 Rocket 4.4 23:06:55 36° S 23:09:30 73° E 23:15:36 10° NNE
Okean 3 3.7 23:11:27 51° E 23:11:27 51° E 23:15:29 10° NNE
Cosmos 468 Rocket 4.2 23:10:50 46° SE 23:11:38 50° ESE 23:16:47 10° NNE
Meteor 1-27 Rocket 3.7 23:11:23 31° SSW 23:14:11 85° WNW 23:19:47 10° N
ATLAS CENTAUR R/B 3.5 23:18:47 15° ENE 23:18:47 15° ENE 23:19:44 10° ENE
CZ-4B R/B 3.5 23:12:56 10° NNE 23:17:37 52° E 23:18:01 51° ESE
CARTOSAT-1 3.8 23:17:11 49° SSW 23:18:05 62° WSW 23:22:24 10° NNW
ATLAS 3B R/B 3.3 23:11:41 10° NW 23:18:26 49° NE 23:22:22 23° E
Cosmos 2369 Rocket 4.1 23:14:30 10° N 23:18:46 22° NE 23:22:20 13° E
Geosat 4.0 23:14:49 10° NE 23:19:47 57° ESE 23:20:27 52° SSE
Cosmos 2297 3.7 23:14:55 10° NNW 23:20:41 81° ENE 23:22:22 48° SE
Spot 4 3.7 23:20:41 57° SE 23:21:37 79° ENE 23:26:25 10° NNW
Cosmos 1975 4.3 23:19:39 10° NNE 23:22:55 25° ENE 23:22:55 25° ENE
IGS 5A 3.8 23:23:46 50° SW 23:24:23 56° W 23:28:30 10° NNW
Cosmos 841 Rocket 4.5 23:26:45 30° E 23:26:45 30° E 23:30:43 10° NE
Aureole 2 Rocket 4.0 23:29:02 24° N 23:29:02 24° N 23:30:23 10° NNE
Cosmos 1745 Rocket 4.3 23:23:08 10° NNW 23:29:22 61° W 23:32:13 33° SSW
Cosmos 2360 Rocket 4.5 23:24:49 10° W 23:29:22 24° NW 23:33:57 10° NNE
Okean 1 Rocket 3.3 23:27:13 10° NNW 23:31:37 61° W 23:32:19 53° SW
COSMOS 2428 4.0 23:26:24 10° WSW 23:31:44 40° NW 23:37:06 10° NNE
H-2A R/B 3.3 23:30:25 22° SW 23:32:31 30° W 23:36:52 10° NNW
CZ-4 R/B 3.7 23:27:59 10° NNE 23:32:49 82° ESE 23:33:41 60° S
Cosmos 2292 Rocket 3.9 23:30:35 10° N 23:32:36 39° NNW 23:32:36 39° NNW
Cosmos 1455 Rocket 4.0 23:29:53 10° N 23:34:02 35° ENE 23:34:11 35° ENE
Cosmos 2298 Rocket 4.2 23:30:02 10° NNW 23:35:19 62° WSW 23:36:30 49° SSW
Cosmos 1674 Rocket 4.2 23:34:44 39° SW 23:35:56 51° WNW 23:40:10 10° N
Cosmos 1980 3.8 23:37:04 29° SW 23:40:06 76° WNW 23:45:48 10° NNE
Cosmos 371 Rocket 3.9 23:42:59 43° E 23:42:59 43° E 23:47:08 10° NE
USA 238 DEB 4.3 23:36:01 10° NW 23:42:55 52° NE 23:47:05 25° ESE
USA 238 4.3 23:36:07 10° NW 23:43:01 52° NE 23:47:13 24° ESE
Cosmos 1536 3.7 23:40:45 10° NNW 23:44:34 41° W 23:44:50 40° WSW
Cosmos 2285 Rocket 4.1 23:43:11 49° SSE 23:44:37 61° ESE 23:50:53 10° NNE
SeaSat 1 4.2 23:44:19 18° SW 23:45:41 20° WSW 23:49:16 10° WNW
H-2A R/B 3.4 23:45:15 27° WSW 23:46:05 29° W 23:49:56 10° NW
SL-16 R/B 2.3 23:45:55 53° SE 23:46:19 55° ESE 23:51:53 10° NE
DELTA 2 DEB (DPAF) 4.3 23:47:39 60° SW 23:48:00 63° WSW 23:52:29 10° NNW
Cosmos 1340 3.6 23:49:42 40° NE 23:49:42 40° NE 23:52:26 10° NNE
NOSS 0 Rocket 4.2 23:44:04 18° SW 23:48:42 67° WNW 23:54:51 10° NNE
Cosmos 1937 Rocket 3.8 23:46:13 10° NNW 23:51:20 53° WSW 23:52:08 48° SW
